EW3803 Weather Reports


time (UTC)temp
C
wind
direction
speed
KPH
gust
KPH
rain 1hr
cm
rain 24hr
cm
rain mn
cm
humidity
%
barometer
mb
20260504050013 13 211 6.4 12.9 0.00 0.00 0.00 78 1015.6
20260504044522 13 210 6.4 12.9 0.00 0.00 0.00 78 1015.6
20260504043023 13 209 8.0 14.5 0.00 0.00 0.00 78 1015.5
20260504041527 13 225 4.8 16.1 0.00 0.00 0.00 77 1015.7
20260504040013 13 205 6.4 17.7 0.00 0.00 0.00 77 1015.6
20260504034523 13 209 8.0 17.7 0.00 0.00 0.00 77 1015.7
20260504033034 13 207 4.8 12.9 0.00 0.00 0.00 77 1015.7
20260504031529 13 223 6.4 16.1 0.00 0.00 0.00 76 1015.8
20260504030025 13 244 9.7 17.7 0.00 0.00 0.00 76 1015.8
20260504024533 13 220 6.4 14.5 0.00 0.00 0.00 77 1015.8
20260504023018 13 222 9.7 16.1 0.00 0.00 0.00 78 1015.7
20260504021521 13 212 9.7 14.5 0.00 0.00 0.00 78 1015.6
20260504020026 13 242 9.7 17.7 0.00 0.00 0.00 79 1015.8
20260504014510 13 238 9.7 17.7 0.00 0.00 0.00 78 1015.9
20260504013017 13 238 9.7 19.3 0.00 0.00 0.00 77 1015.9
20260504011523 13 238 11.3 17.7 0.00 0.00 0.00 77 1015.9
20260504010029 14 251 11.3 19.3 0.00 0.00 0.00 78 1016.1
20260504004538 14 237 12.9 22.5 0.00 0.00 0.00 78 1016.1
20260504003016 14 242 12.9 19.3 0.00 0.00 0.00 78 1016.2
20260504001517 14 221 12.9 20.9 0.00 0.00 0.00 79 1016.3
20260504000025 14 257 11.3 19.3 0.00 0.00 0.00 79 1016.3
20260503234528 14 234 14.5 20.9 0.00 0.00 0.00 78 1016.3
20260503233030 14 244 9.7 19.3 0.00 0.00 0.00 78 1016.4
20260503231516 14 229 11.3 20.9 0.00 0.00 0.00 79 1016.4
20260503230022 14 223 12.9 17.7 0.00 0.00 0.00 80 1016.2
20260503224527 15 223 16.1 20.9 0.00 0.00 0.00 81 1016.3
20260503223026 15 237 11.3 19.3 0.00 0.00 0.00 80 1016.2
20260503221528 15 218 14.5 20.9 0.00 0.00 0.00 80 1016.1
20260503220022 15 214 12.9 22.5 0.00 0.00 0.00 81 1016.1
20260503214525 15 186 11.3 22.5 0.00 0.00 0.00 82 1015.9
20260503213029 15 178 11.3 24.1 0.00 0.00 0.00 81 1015.9
20260503211536 15 215 12.9 22.5 0.00 0.00 0.00 81 1015.7
20260503210018 15 188 11.3 24.1 0.00 0.00 0.00 82 1015.5
20260503204521 15 219 12.9 22.5 0.00 0.00 0.00 83 1015.4
20260503203023 15 230 9.7 20.9 0.00 0.00 0.00 83 1015.2
20260503201525 15 227 8.0 19.3 0.00 0.00 0.00 82 1014.8
20260503200030 15 213 11.3 19.3 0.00 0.00 0.00 82 1014.8
20260503194518 15 195 6.4 19.3 0.00 0.00 0.00 84 1014.7
20260503193035 16 225 11.3 19.3 0.00 0.00 0.00 82 1014.6
20260503191526 16 185 8.0 14.5 0.00 0.00 0.00 80 1014.4
20260503190034 16 206 8.0 12.9 0.00 0.00 0.00 78 1014.4
20260503184529 16 199 9.7 19.3 0.00 0.00 0.00 76 1014.5
20260503183021 17 185 9.7 19.3 0.00 0.00 0.00 76 1014.4
20260503181526 17 175 11.3 19.3 0.00 0.00 0.00 75 1014.3
20260503180026 17 204 9.7 20.9 0.00 0.00 0.00 75 1014.3
20260503174528 17 171 9.7 16.1 0.00 0.00 0.00 75 1014.3
20260503173028 17 157 8.0 17.7 0.00 0.00 0.00 73 1014.3
20260503171526 17 188 8.0 16.1 0.00 0.00 0.00 72 1014.4
20260503081509 16 182 1.6 9.7 0.00 0.00 0.00 80 1015.3